• In Netherlands
  • List of Countries
  • For 7 days
  • Water Temperature
  • Satellite Maps
  • Weather Map
  • Weather Widgets
  • user-avatar
    Login

    Hourly Weather Shkoder

    Today, 23 March, Thursday

    Time Temperature Precipitation Wind Pressure Humidity
    00:00 +11°C° 0 mm 0 mps 739 mmHg 87%
    01:00 +10°C° 0 mm 0 mps 739 mmHg 87%
    02:00 +10°C° 0 mm 0 mps 739 mmHg 87%
    03:00 +10°C° 0 mm 0 mps 739 mmHg 87%
    04:00 +9°C° 0 mm 0 mps 739 mmHg 86%
    05:00 +11°C° 0 mm 0 mps 739 mmHg 82%
    06:00 +12°C° 0 mm 0 mps 739 mmHg 78%
    07:00 +13°C° 0 mm 0 mps 740 mmHg 73%
    08:00 +15°C° 0 mm 0 mps 740 mmHg 65%
    09:00 +18°C° 0 mm 0 mps 740 mmHg 58%
    10:00 +20°C° 0 mm 0 mps 741 mmHg 50%
    11:00 +22°C° 0 mm 1 mps 741 mmHg 48%
    12:00 +23°C° 0 mm 1 mps 741 mmHg 47%
    13:00 +23°C° 0 mm 2 mps 741 mmHg 46%
    14:00 +23°C° 0 mm 1 mps 741 mmHg 49%
    15:00 +22°C° 0 mm 1 mps 741 mmHg 52%
    16:00 +21°C° 0 mm 1 mps 741 mmHg 55%
    17:00 +19°C° 0 mm 1 mps 741 mmHg 63%
    18:00 +16°C° 0 mm 1 mps 741 mmHg 72%
    19:00 +13°C° 0 mm 1 mps 741 mmHg 80%
    20:00 +12°C° 0 mm 0 mps 742 mmHg 81%
    21:00 +11°C° 0 mm 0 mps 742 mmHg 81%
    22:00 +11°C° 0 mm 0 mps 742 mmHg 81%
    23:00 +11°C° 0 mm 0 mps 742 mmHg 80%

    Tomorrow, 24 March, Friday

    Time Temperature Precipitation Wind Pressure Humidity
    00:00 +10°C° 0 mm 0 mps 743 mmHg 80%
    01:00 +10°C° 0 mm 0 mps 743 mmHg 79%
    02:00 +10°C° 0 mm 0 mps 743 mmHg 79%
    03:00 +9°C° 0 mm 0 mps 742 mmHg 79%
    04:00 +9°C° 0 mm 0 mps 742 mmHg 78%
    05:00 +10°C° 0 mm 0 mps 743 mmHg 73%
    06:00 +13°C° 0 mm 1 mps 743 mmHg 68%
    07:00 +14°C° 0 mm 1 mps 743 mmHg 63%
    08:00 +18°C° 0 mm 1 mps 743 mmHg 56%
    09:00 +20°C° 0 mm 1 mps 744 mmHg 48%
    10:00 +21°C° 0 mm 0 mps 744 mmHg 41%
    11:00 +23°C° 0 mm 1 mps 744 mmHg 40%
    12:00 +24°C° 0 mm 1 mps 743 mmHg 39%
    13:00 +24°C° 0 mm 2 mps 743 mmHg 38%
    14:00 +24°C° 0 mm 2 mps 743 mmHg 41%
    15:00 +23°C° 0 mm 2 mps 743 mmHg 45%
    16:00 +23°C° 0 mm 2 mps 742 mmHg 48%
    17:00 +19°C° 0 mm 2 mps 742 mmHg 56%
    18:00 +18°C° 0 mm 1 mps 742 mmHg 63%
    19:00 +14°C° 0 mm 1 mps 742 mmHg 71%
    20:00 +14°C° 0 mm 1 mps 743 mmHg 69%
    21:00 +14°C° 0 mm 1 mps 743 mmHg 67%
    22:00 +14°C° 0 mm 1 mps 743 mmHg 64%
    23:00 +14°C° 0 mm 1 mps 743 mmHg 66%

    Day after tomorrow, 25 March, Saturday

    Time Temperature Precipitation Wind Pressure Humidity
    00:00 +13°C° 0 mm 1 mps 743 mmHg 68%
    01:00 +13°C° 0 mm 1 mps 743 mmHg 69%
    02:00 +13°C° 0 mm 1 mps 743 mmHg 72%
    03:00 +13°C° 0 mm 2 mps 743 mmHg 74%
    04:00 +13°C° 0 mm 2 mps 743 mmHg 77%
    05:00 +13°C° 0 mm 2 mps 743 mmHg 77%
    06:00 +14°C° 0 mm 2 mps 743 mmHg 78%
    07:00 +15°C° 0 mm 1 mps 743 mmHg 78%
    08:00 +18°C° 0 mm 1 mps 743 mmHg 71%
    09:00 +20°C° 0 mm 1 mps 743 mmHg 63%
    10:00 +22°C° 0 mm 1 mps 743 mmHg 55%
    11:00 +23°C° 0.1 mm 1 mps 743 mmHg 54%
    12:00 +23°C° 0.1 mm 1 mps 742 mmHg 53%
    13:00 +23°C° 0.1 mm 2 mps 742 mmHg 52%
    14:00 +23°C° 0.2 mm 2 mps 742 mmHg 54%
    15:00 +21°C° 0.2 mm 2 mps 741 mmHg 57%
    16:00 +21°C° 0.2 mm 2 mps 741 mmHg 60%
    17:00 +19°C° 0.2 mm 1 mps 741 mmHg 69%
    18:00 +16°C° 0.2 mm 1 mps 741 mmHg 78%
    19:00 +13°C° 0.2 mm 0 mps 741 mmHg 87%
    20:00 +12°C° 0 mm 0 mps 741 mmHg 88%
    21:00 +12°C° 0 mm 0 mps 741 mmHg 89%
    22:00 +12°C° 0 mm 0 mps 741 mmHg 90%
    23:00 +12°C° 0 mm 1 mps 741 mmHg 90%

    26 March, Sunday

    Time Temperature Precipitation Wind Pressure Humidity
    00:00 +12°C° 0 mm 1 mps 741 mmHg 91%
    01:00 +11°C° 0 mm 1 mps 740 mmHg 92%
    02:00 +11°C° 0 mm 1 mps 740 mmHg 92%
    03:00 +11°C° 0 mm 1 mps 739 mmHg 93%
    04:00 +11°C° 0 mm 1 mps 739 mmHg 94%
    05:00 +11°C° 0 mm 1 mps 739 mmHg 90%
    06:00 +12°C° 0 mm 1 mps 739 mmHg 87%
    07:00 +13°C° 0 mm 2 mps 738 mmHg 84%
    08:00 +14°C° 0 mm 2 mps 738 mmHg 78%
    09:00 +16°C° 0 mm 2 mps 738 mmHg 72%
    10:00 +17°C° 0 mm 3 mps 737 mmHg 67%
    11:00 +17°C° 0.4 mm 3 mps 737 mmHg 68%
    12:00 +17°C° 0.4 mm 4 mps 736 mmHg 69%
    13:00 +17°C° 0.4 mm 4 mps 735 mmHg 71%
    14:00 +15°C° 0.3 mm 4 mps 735 mmHg 73%
    15:00 +15°C° 0.3 mm 4 mps 735 mmHg 75%
    16:00 +14°C° 0.3 mm 4 mps 734 mmHg 78%
    17:00 +13°C° 0.2 mm 3 mps 734 mmHg 83%
    18:00 +12°C° 0.2 mm 3 mps 734 mmHg 88%
    19:00 +10°C° 0.2 mm 3 mps 735 mmHg 94%
    20:00 +10°C° 0.1 mm 3 mps 735 mmHg 94%
    21:00 +10°C° 0.1 mm 2 mps 735 mmHg 95%
    22:00 +9°C° 0.1 mm 2 mps 735 mmHg 95%
    23:00 +9°C° 0.4 mm 2 mps 735 mmHg 95%

    27 March, Monday

    Time Temperature Precipitation Wind Pressure Humidity
    00:00 +9°C° 0.4 mm 2 mps 735 mmHg 94%
    01:00 +9°C° 0.4 mm 2 mps 735 mmHg 94%
    02:00 +9°C° 0.8 mm 2 mps 734 mmHg 94%
    03:00 +8°C° 0.8 mm 2 mps 734 mmHg 94%
    04:00 +8°C° 0.8 mm 2 mps 734 mmHg 94%
    05:00 +8°C° 1.7 mm 2 mps 734 mmHg 93%
    06:00 +8°C° 1.7 mm 3 mps 735 mmHg 93%
    07:00 +8°C° 1.7 mm 3 mps 735 mmHg 92%
    08:00 +8°C° 1.8 mm 3 mps 735 mmHg 91%
    09:00 +7°C° 1.8 mm 3 mps 735 mmHg 90%
    10:00 +7°C° 1.8 mm 3 mps 735 mmHg 89%
    11:00 +7°C° 0.7 mm 3 mps 735 mmHg 88%
    12:00 +8°C° 0.7 mm 3 mps 735 mmHg 87%
    13:00 +8°C° 0.7 mm 3 mps 735 mmHg 85%
    14:00 +8°C° 0.8 mm 2 mps 735 mmHg 86%
    15:00 +8°C° 0.8 mm 2 mps 735 mmHg 87%
    16:00 +8°C° 0.8 mm 2 mps 735 mmHg 88%
    17:00 +7°C° 1.1 mm 2 mps 735 mmHg 90%
    18:00 +7°C° 1.1 mm 2 mps 736 mmHg 91%
    19:00 +6°C° 1.1 mm 2 mps 736 mmHg 92%
    20:00 +6°C° 1 mm 2 mps 736 mmHg 92%
    21:00 +6°C° 1 mm 2 mps 736 mmHg 93%
    22:00 +6°C° 1 mm 2 mps 737 mmHg 93%
    23:00 +5°C° 0.8 mm 3 mps 737 mmHg 93%

    28 March, Tuesday

    Time Temperature Precipitation Wind Pressure Humidity
    00:00 +5°C° 0.8 mm 3 mps 737 mmHg 93%
    01:00 +5°C° 0.8 mm 3 mps 737 mmHg 93%
    02:00 +5°C° 0.3 mm 3 mps 737 mmHg 92%
    03:00 +5°C° 0.3 mm 4 mps 737 mmHg 91%
    04:00 +5°C° 0.3 mm 4 mps 737 mmHg 90%
    05:00 +5°C° 0.1 mm 4 mps 738 mmHg 90%
    06:00 +5°C° 0.1 mm 4 mps 738 mmHg 89%
    07:00 +6°C° 0.1 mm 4 mps 738 mmHg 89%
    08:00 +6°C° 0 mm 4 mps 739 mmHg 86%
    09:00 +7°C° 0 mm 5 mps 739 mmHg 84%
    10:00 +8°C° 0 mm 5 mps 740 mmHg 82%
    11:00 +9°C° 0 mm 5 mps 740 mmHg 79%
    12:00 +10°C° 0 mm 5 mps 740 mmHg 77%
    13:00 +10°C° 0 mm 5 mps 740 mmHg 75%
    14:00 +10°C° 0 mm 5 mps 740 mmHg 75%
    15:00 +10°C° 0 mm 5 mps 740 mmHg 75%
    16:00 +11°C° 0 mm 4 mps 740 mmHg 75%
    17:00 +8°C° 0 mm 4 mps 741 mmHg 78%
    18:00 +7°C° 0 mm 4 mps 741 mmHg 81%
    19:00 +6°C° 0 mm 4 mps 742 mmHg 84%
    20:00 +6°C° 0 mm 4 mps 742 mmHg 85%
    21:00 +5°C° 0 mm 4 mps 743 mmHg 86%
    22:00 +5°C° 0 mm 4 mps 743 mmHg 86%
    23:00 +5°C° 0 mm 3 mps 743 mmHg 87%
    Show more